This is the latest recevied weather packets stored in our database for station/object CE4TQY-10. If no packets are shown the sender has not sent any weather packets the latest 10 day(s).
| Time | Temp. | Humidity | Pressure | Rain* | Wind** | Luminosity | Snow |
|---|---|---|---|---|---|---|---|
| 1777652128 | 14.44° C | 73% | 1024.3 hPa | - | - | - | - |
| 1777651227 | 13.89° C | 74% | 1024.1 hPa | - | - | - | - |
| 1777650327 | 13.89° C | 74% | 1024.2 hPa | - | - | - | - |
| 1777649426 | 13.89° C | 75% | 1024.3 hPa | - | - | - | - |
| 1777648525 | 13.33° C | 75% | 1024.2 hPa | - | - | - | - |
| 1777647624 | 13.33° C | 75% | 1024 hPa | - | - | - | - |
| 1777646723 | 13.33° C | 76% | 1023.7 hPa | - | - | - | - |
| 1777645822 | 12.78° C | 78% | 1023.7 hPa | - | - | - | - |
| 1777644921 | 12.22° C | 80% | 1023.9 hPa | - | - | - | - |
| 1777644020 | 12.22° C | 81% | 1023.7 hPa | - | - | - | - |
| 1777643119 | 11.67° C | 81% | 1023.6 hPa | - | - | - | - |
| 1777642218 | 11.67° C | 81% | 1023.5 hPa | - | - | - | - |
| 1777641316 | 11.67° C | 81% | 1023.3 hPa | - | - | - | - |
| 1777640415 | 11.67° C | 82% | 1023.2 hPa | - | - | - | - |
| 1777639514 | 11.11° C | 83% | 1023 hPa | - | - | - | - |
| 1777638612 | 11.11° C | 84% | 1016.1 hPa | - | - | - | - |
| 1777637711 | 10.56° C | 85% | 1013.9 hPa | - | - | - | - |
| 1777636811 | 10.56° C | 85% | 1011.9 hPa | - | - | - | - |
| 1777635910 | 10.56° C | 86% | 1010.9 hPa | - | - | - | - |
| 1777635009 | 10.56° C | 86% | 1011.1 hPa | - | - | - | - |
| 1777634108 | 10.56° C | 87% | 1011.1 hPa | - | - | - | - |
| 1777633207 | 10.56° C | 87% | 1011.1 hPa | - | - | - | - |
| 1777632306 | 10.56° C | 87% | 1010.8 hPa | - | - | - | - |
| 1777631404 | 11.11° C | 87% | 1010.5 hPa | - | - | - | - |
| 1777630503 | 11.11° C | 87% | 1010.2 hPa | - | - | - | - |
* Rain since midnight (hover to see other rain measurements)
** Current wind speed in m/s (hover to see current wind gust speed)